{"data":{"norad_id":62562,"intl_designator":"2025-006J","name":"STARLINK-11530 [DTC]","alt_names":[],"object_type":"PAYLOAD","status":"ACTIVE","operator":null,"country":"US","launch_date":"2025-01-10","launch_site_code":"AFETR","launch_vehicle":null,"mission":null,"orbit_class":"UNKNOWN","rcs_meters":null,"size_class":null,"mass_kg":null,"dimensions":null,"purposes":["comms"],"wikipedia_slug":null,"has_3d_model":false,"image_url":null,"decayed_at":null,"tle_current":{"epoch":"2026-09-21T16:31:13.976544Z","epoch_age_seconds":68698,"freshness":"FRESH","line1":"1 62562U 25006J   26264.68835621  .00177435  00000+0  13545-2 0  9999","line2":"2 62562  43.0000  38.8618 0002173 321.1229  38.9482 15.70882692 97421","mean_motion":15.70882692,"eccentricity":0.0002173,"inclination_deg":43,"raan_deg":38.8618,"arg_perigee_deg":321.1229,"mean_anomaly_deg":38.9482,"bstar":0.0013545,"rev_number":9742,"period_min":91.668207138156,"perigee_km":354.90963357386,"apogee_km":357.83645163838,"semimajor_km":6734.5100426061,"source":"CELESTRAK","updated_at":"2026-09-22T09:00:49.627528Z"}}}